When you browse on this site, cookies collect data to enhance your experience and personalize the content and advertising you see.
Visit our Privacy Policy to learn more. By continuing to use the site, you agree to this use of cookies and data.
  • In Hungary
  • List of Countries
  • For 7 days
  • Water Temperature
  • Satellite Maps
  • Weather Map
  • News
  • Weather Widgets
  • user-avatar
    Login

    Hourly Weather Neuquén

    Today, 22 April, Monday

    Time Temperature Precipitation Wind Pressure Humidity
    00:00 +17°C° 0 mm 4 mps 735 mmHg 37%
    01:00 +17°C° 0 mm 3 mps 735 mmHg 38%
    02:00 +16°C° 0 mm 3 mps 735 mmHg 40%
    03:00 +16°C° 0 mm 3 mps 735 mmHg 42%
    04:00 +15°C° 0 mm 2 mps 734 mmHg 44%
    05:00 +15°C° 0 mm 2 mps 734 mmHg 44%
    06:00 +15°C° 0 mm 2 mps 734 mmHg 45%
    07:00 +15°C° 0 mm 2 mps 735 mmHg 45%
    08:00 +17°C° 0 mm 2 mps 735 mmHg 40%
    09:00 +19°C° 0 mm 2 mps 735 mmHg 36%
    10:00 +21°C° 0 mm 2 mps 735 mmHg 31%
    11:00 +23°C° 0 mm 2 mps 735 mmHg 28%
    12:00 +25°C° 0 mm 3 mps 734 mmHg 25%
    13:00 +27°C° 0 mm 3 mps 734 mmHg 21%
    14:00 +27°C° 0 mm 3 mps 734 mmHg 21%
    15:00 +27°C° 0 mm 3 mps 733 mmHg 20%
    16:00 +27°C° 0 mm 3 mps 733 mmHg 20%
    17:00 +25°C° 0 mm 3 mps 733 mmHg 23%
    18:00 +22°C° 0 mm 3 mps 733 mmHg 26%
    19:00 +21°C° 0 mm 2 mps 733 mmHg 29%
    20:00 +20°C° 0 mm 4 mps 734 mmHg 33%
    21:00 +20°C° 0 mm 5 mps 734 mmHg 38%
    22:00 +18°C° 0 mm 7 mps 734 mmHg 42%
    23:00 +19°C° 0 mm 6 mps 734 mmHg 49%

    Tomorrow, 23 April, Tuesday

    Time Temperature Precipitation Wind Pressure Humidity
    00:00 +17°C° 0 mm 5 mps 734 mmHg 55%
    01:00 +17°C° 0 mm 4 mps 734 mmHg 61%
    02:00 +15°C° 0 mm 4 mps 734 mmHg 66%
    03:00 +14°C° 0 mm 3 mps 734 mmHg 71%
    04:00 +14°C° 0 mm 2 mps 734 mmHg 76%
    05:00 +14°C° 0 mm 2 mps 734 mmHg 77%
    06:00 +15°C° 0 mm 2 mps 735 mmHg 77%
    07:00 +15°C° 0 mm 2 mps 735 mmHg 77%
    08:00 +16°C° 0 mm 3 mps 736 mmHg 69%
    09:00 +18°C° 0 mm 3 mps 736 mmHg 61%
    10:00 +20°C° 0 mm 4 mps 737 mmHg 52%
    11:00 +21°C° 0 mm 5 mps 737 mmHg 49%
    12:00 +21°C° 0 mm 6 mps 736 mmHg 46%
    13:00 +22°C° 0 mm 7 mps 736 mmHg 43%
    14:00 +22°C° 0 mm 7 mps 736 mmHg 43%
    15:00 +22°C° 0 mm 7 mps 736 mmHg 43%
    16:00 +22°C° 0 mm 7 mps 737 mmHg 43%
    17:00 +20°C° 0 mm 8 mps 737 mmHg 47%
    18:00 +18°C° 0 mm 8 mps 738 mmHg 51%
    19:00 +17°C° 0 mm 9 mps 738 mmHg 55%
    20:00 +16°C° 0 mm 9 mps 738 mmHg 59%
    21:00 +15°C° 0 mm 9 mps 739 mmHg 63%
    22:00 +13°C° 0 mm 9 mps 739 mmHg 67%
    23:00 +12°C° 0 mm 9 mps 739 mmHg 69%

    Day after tomorrow, 24 April, Wednesday

    Time Temperature Precipitation Wind Pressure Humidity
    00:00 +12°C° 0 mm 9 mps 739 mmHg 72%
    01:00 +11°C° 0 mm 9 mps 739 mmHg 74%
    02:00 +11°C° 0 mm 8 mps 739 mmHg 75%
    03:00 +11°C° 0 mm 8 mps 739 mmHg 76%
    04:00 +11°C° 0 mm 8 mps 739 mmHg 77%
    05:00 +11°C° 0 mm 7 mps 739 mmHg 77%
    06:00 +11°C° 0 mm 7 mps 739 mmHg 77%
    07:00 +11°C° 0 mm 7 mps 739 mmHg 77%
    08:00 +12°C° 0 mm 7 mps 739 mmHg 71%
    09:00 +15°C° 0 mm 6 mps 740 mmHg 65%
    10:00 +16°C° 0 mm 6 mps 740 mmHg 59%
    11:00 +19°C° 0 mm 6 mps 740 mmHg 54%
    12:00 +21°C° 0 mm 6 mps 739 mmHg 48%
    13:00 +23°C° 0 mm 6 mps 739 mmHg 43%
    14:00 +23°C° 0 mm 6 mps 738 mmHg 42%
    15:00 +23°C° 0 mm 6 mps 738 mmHg 41%
    16:00 +23°C° 0 mm 6 mps 738 mmHg 40%
    17:00 +22°C° 0 mm 5 mps 738 mmHg 43%
    18:00 +21°C° 0 mm 5 mps 738 mmHg 46%
    19:00 +19°C° 0 mm 4 mps 739 mmHg 49%
    20:00 +19°C° 0 mm 4 mps 739 mmHg 49%
    21:00 +19°C° 0 mm 4 mps 739 mmHg 49%
    22:00 +19°C° 0 mm 5 mps 739 mmHg 49%
    23:00 +17°C° 0 mm 5 mps 739 mmHg 50%

    25 April, Thursday

    Time Temperature Precipitation Wind Pressure Humidity
    00:00 +16°C° 0 mm 5 mps 739 mmHg 51%
    01:00 +17°C° 0 mm 4 mps 739 mmHg 52%
    02:00 +17°C° 0 mm 4 mps 739 mmHg 54%
    03:00 +15°C° 0 mm 4 mps 738 mmHg 55%
    04:00 +15°C° 0 mm 4 mps 738 mmHg 56%
    05:00 +15°C° 0 mm 4 mps 739 mmHg 56%
    06:00 +15°C° 0 mm 4 mps 739 mmHg 56%
    07:00 +15°C° 0 mm 5 mps 739 mmHg 55%
    08:00 +16°C° 0 mm 5 mps 739 mmHg 51%
    09:00 +19°C° 0 mm 6 mps 739 mmHg 47%
    10:00 +20°C° 0 mm 6 mps 739 mmHg 43%
    11:00 +21°C° 0 mm 6 mps 739 mmHg 42%
    12:00 +22°C° 0 mm 6 mps 738 mmHg 41%
    13:00 +23°C° 0 mm 6 mps 738 mmHg 41%
    14:00 +22°C° 0.3 mm 6 mps 738 mmHg 43%
    15:00 +22°C° 0.3 mm 6 mps 738 mmHg 45%
    16:00 +22°C° 0.3 mm 6 mps 737 mmHg 48%
    17:00 +21°C° 0.6 mm 5 mps 738 mmHg 51%
    18:00 +21°C° 0.6 mm 5 mps 738 mmHg 53%
    19:00 +20°C° 0.6 mm 5 mps 738 mmHg 56%
    20:00 +20°C° 0.5 mm 5 mps 738 mmHg 61%
    21:00 +19°C° 0.5 mm 6 mps 738 mmHg 66%
    22:00 +19°C° 0.5 mm 6 mps 738 mmHg 71%
    23:00 +17°C° 0.1 mm 5 mps 738 mmHg 73%

    26 April, Friday

    Time Temperature Precipitation Wind Pressure Humidity
    00:00 +17°C° 0.1 mm 5 mps 738 mmHg 75%
    01:00 +18°C° 0.1 mm 4 mps 737 mmHg 78%
    02:00 +17°C° 0 mm 3 mps 737 mmHg 81%
    03:00 +17°C° 0 mm 3 mps 737 mmHg 84%
    04:00 +16°C° 0 mm 2 mps 737 mmHg 87%
    05:00 +16°C° 0 mm 2 mps 737 mmHg 87%
    06:00 +16°C° 0 mm 3 mps 737 mmHg 88%
    07:00 +16°C° 0 mm 3 mps 737 mmHg 88%
    08:00 +17°C° 0 mm 3 mps 737 mmHg 84%
    09:00 +18°C° 0 mm 4 mps 738 mmHg 79%
    10:00 +19°C° 0 mm 4 mps 738 mmHg 74%
    11:00 +20°C° 0 mm 3 mps 737 mmHg 68%
    12:00 +21°C° 0 mm 3 mps 737 mmHg 62%
    13:00 +23°C° 0 mm 2 mps 736 mmHg 56%
    14:00 +23°C° 0 mm 2 mps 736 mmHg 53%
    15:00 +24°C° 0 mm 1 mps 736 mmHg 51%
    16:00 +24°C° 0 mm 1 mps 735 mmHg 48%
    17:00 +23°C° 0 mm 1 mps 736 mmHg 53%
    18:00 +22°C° 0 mm 1 mps 736 mmHg 57%
    19:00 +21°C° 0 mm 1 mps 736 mmHg 61%
    20:00 +20°C° 0 mm 1 mps 736 mmHg 62%
    21:00 +19°C° 0 mm 2 mps 736 mmHg 64%
    22:00 +19°C° 0 mm 2 mps 736 mmHg 65%
    23:00 +18°C° 0 mm 2 mps 735 mmHg 66%

    27 April, Saturday

    Time Temperature Precipitation Wind Pressure Humidity
    00:00 +18°C° 0 mm 2 mps 735 mmHg 68%
    01:00 +18°C° 0 mm 1 mps 735 mmHg 69%
    02:00 +18°C° 0 mm 1 mps 735 mmHg 70%
    03:00 +18°C° 0 mm 1 mps 735 mmHg 72%
    04:00 +16°C° 0 mm 1 mps 734 mmHg 73%
    05:00 +18°C° 0 mm 1 mps 735 mmHg 70%
    06:00 +18°C° 0 mm 1 mps 735 mmHg 67%
    07:00 +18°C° 0 mm 2 mps 735 mmHg 64%
    08:00 +19°C° 0 mm 2 mps 735 mmHg 56%
    09:00 +21°C° 0 mm 3 mps 735 mmHg 47%
    10:00 +24°C° 0 mm 3 mps 735 mmHg 38%
    11:00 +25°C° 0 mm 3 mps 735 mmHg 35%
    12:00 +26°C° 0 mm 3 mps 734 mmHg 32%
    13:00 +27°C° 0 mm 3 mps 734 mmHg 29%
    14:00 +26°C° 0 mm 3 mps 733 mmHg 29%
    15:00 +26°C° 0 mm 3 mps 733 mmHg 28%
    16:00 +26°C° 0 mm 3 mps 733 mmHg 28%
    17:00 +25°C° 0 mm 2 mps 734 mmHg 31%
    18:00 +23°C° 0 mm 2 mps 734 mmHg 33%
    19:00 +22°C° 0 mm 1 mps 734 mmHg 36%
    20:00 +22°C° 0 mm 1 mps 734 mmHg 37%
    21:00 +21°C° 0 mm 1 mps 734 mmHg 39%
    22:00 +20°C° 0 mm 1 mps 734 mmHg 40%
    23:00 +20°C° 0 mm 1 mps 734 mmHg 41%
    Show more